Theta_e
312 312 315 317 320 323 326 325 318 320 322 314 315 315 318 322 321 321 322 321 322 324 325 324 324 322 322 322 329 345 347 351 351 349 351 353 349 350 353 350 350 348 350 346 338 336 340 342 344 346 346 346 345 345 343 343 340 337 335 332 331 334 336 338 339 339 338 339 337 336 338 342 342 342 341 341 342 341 339 338 338 339 339 338 337 337 337 337 337 337 337 337 336 336 335 336 335
315 318 320 323 325 325 325 324 318 317 317 311 314 316 318 322 321 321 322 321 322 322 323 322 321 321 321 323 328 343 348 348 349 350 351 349 350 352 352 350 349 348 349 347 341 339 345 346 344 346 346 346 346 345 345 343 340 337 335 333 333 335 337 339 339 338 339 339 337 337 340 342 342 341 339 341 341 339 338 338 339 339 340 338 337 337 337 338 338 338 337 336 335 335 335 335 333
319 325 325 323 323 323 325 325 317 311 312 310 312 318 321 321 321 321 321 320 321 320 321 321 321 322 323 329 333 343 348 347 347 347 347 348 352 353 351 351 349 348 347 347 345 344 347 347 344 346 346 347 347 346 345 343 340 337 335 333 333 335 337 339 339 339 340 338 337 339 341 341 342 341 339 340 340 338 338 339 339 340 340 338 337 338 338 339 339 338 337 335 334 333 334 333 331
320 327 327 322 320 322 323 322 320 311 308 308 310 318 321 320 320 320 320 320 320 320 320 320 322 327 334 341 342 346 348 346 347 346 347 349 352 353 351 349 348 347 345 346 347 346 347 345 344 345 347 347 347 347 345 342 339 337 336 334 334 335 337 339 340 340 338 335 336 338 341 342 342 340 339 340 338 338 339 339 339 340 338 338 338 339 339 338 339 338 337 336 334 332 332 330 329
320 325 326 322 319 321 323 321 320 313 309 310 310 318 322 320 321 319 320 320 320 320 319 320 321 330 345 349 349 349 348 347 348 347 350 353 353 352 350 349 347 346 345 345 345 346 346 343 343 344 347 348 348 347 345 342 339 338 337 336 335 337 338 339 340 339 335 334 336 337 339 341 340 339 339 337 336 338 339 339 338 337 336 338 339 338 338 338 338 338 338 337 336 334 331 327 325
320 324 323 322 322 324 324 320 316 313 315 318 315 317 321 320 321 320 321 322 321 321 321 320 321 339 351 349 349 350 349 349 348 347 352 353 353 352 349 348 347 345 344 345 345 346 346 343 342 345 347 348 348 347 345 343 341 339 338 336 336 338 338 339 339 337 335 336 339 338 338 340 338 337 336 336 337 339 339 338 336 336 337 339 339 338 340 340 339 338 339 338 336 335 333 329 323
320 322 321 320 321 324 322 317 313 314 318 321 319 319 320 319 321 320 321 322 322 322 320 321 323 342 351 349 351 349 348 349 347 348 353 354 353 352 349 348 346 345 345 345 344 346 345 342 342 345 347 347 347 346 345 344 342 340 338 336 337 338 338 338 337 336 335 338 340 338 337 338 339 338 336 337 339 339 339 338 336 338 340 340 340 340 340 340 340 339 339 337 336 335 334 332 325
320 321 321 319 319 321 318 314 315 317 319 321 321 319 319 319 320 319 321 320 322 324 321 324 323 335 345 350 353 351 348 348 347 351 354 354 352 351 349 347 346 346 346 346 345 345 345 342 343 346 347 347 347 346 345 343 341 339 337 337 338 338 337 337 336 335 337 339 339 336 336 338 339 340 337 338 340 339 338 336 336 340 340 340 341 340 340 340 339 338 337 335 334 335 334 333 326
320 321 321 320 318 318 315 314 315 318 320 321 320 319 319 319 320 319 320 320 323 324 321 326 323 333 346 352 352 349 347 348 350 353 354 353 352 350 349 347 346 347 345 346 344 344 343 342 344 345 346 346 345 345 344 342 340 338 338 339 338 336 336 336 336 336 337 338 337 337 339 340 341 341 339 338 338 338 336 335 337 340 341 341 341 340 340 339 338 337 336 334 334 334 334 331 322
319 320 322 323 318 313 312 315 316 318 321 320 319 319 319 319 319 318 319 320 324 325 324 324 321 335 348 352 352 349 348 349 352 353 352 352 351 350 350 348 347 347 345 346 344 343 343 343 345 345 346 345 344 344 343 342 340 339 340 340 338 336 337 336 336 336 336 336 337 340 341 342 342 342 340 337 336 336 336 337 338 339 340 341 340 340 339 337 337 336 334 333 334 334 334 328 319
319 319 320 319 316 310 309 313 316 320 320 319 319 319 318 319 319 319 320 321 323 327 327 323 323 341 352 353 352 350 349 349 352 351 351 351 351 350 349 349 348 347 346 345 343 343 343 343 344 345 345 345 345 344 343 343 342 341 341 339 336 337 337 336 337 338 336 336 338 340 342 342 341 342 340 336 335 336 337 338 339 339 340 341 340 339 338 336 336 334 333 333 333 333 333 327 319
319 319 319 315 313 313 313 313 315 320 320 319 318 319 319 318 320 318 322 325 325 326 325 323 331 346 352 354 352 349 350 350 350 351 351 350 351 351 349 349 349 348 346 344 343 343 343 343 343 344 344 344 344 344 343 343 341 341 340 337 338 338 337 337 338 339 338 338 340 340 341 342 341 341 340 336 335 337 339 339 339 340 340 340 340 339 337 335 334 333 333 333 333 330 329 325 320
319 320 320 315 315 315 314 314 317 320 318 319 318 319 319 318 319 318 321 325 327 328 326 327 337 347 350 353 353 349 350 350 351 351 351 351 352 351 349 350 349 347 345 344 343 342 343 343 342 342 343 344 343 343 343 342 341 340 338 338 339 338 337 339 340 339 338 339 340 340 340 340 340 340 338 337 335 337 339 339 339 339 340 340 339 338 337 335 334 333 334 333 332 329 327 326 322
319 320 320 318 318 317 315 314 316 316 315 319 319 319 319 319 319 318 320 321 324 330 329 332 338 349 353 354 353 350 350 350 351 350 351 351 351 352 349 350 349 347 345 344 343 342 343 342 342 341 341 342 342 343 342 341 340 337 337 338 338 338 339 340 340 339 338 339 339 339 339 339 339 338 337 336 336 336 337 338 339 339 339 339 338 337 336 335 333 333 334 333 332 330 328 327 324
318 319 319 317 317 316 316 315 316 314 314 319 319 319 319 319 320 319 321 321 327 333 332 334 334 343 352 354 353 351 350 351 351 350 351 351 350 350 349 349 349 347 345 344 343 343 343 342 343 340 339 340 340 341 340 339 338 337 338 338 338 339 340 341 341 340 339 340 340 339 339 339 338 337 336 336 336 335 335 337 339 339 339 338 337 336 335 334 334 333 334 333 332 332 329 327 327
317 318 318 316 313 313 315 317 316 313 315 320 318 319 318 319 320 319 321 319 326 333 331 333 332 338 344 347 351 351 351 350 351 350 350 351 350 350 349 350 349 348 346 345 343 343 342 343 343 340 340 341 339 340 339 338 338 338 339 338 339 339 340 340 341 340 340 340 340 339 338 338 338 336 335 335 335 334 335 337 338 338 338 338 337 336 335 334 333 333 333 334 332 332 331 328 330
317 316 316 314 313 312 315 318 316 314 316 320 319 319 318 319 320 319 322 320 324 333 334 335 337 337 340 344 350 351 350 350 351 351 350 350 350 349 349 350 349 347 347 345 344 342 342 343 343 341 343 341 340 340 339 338 338 339 339 338 340 339 340 341 341 340 339 339 338 339 338 338 338 336 335 335 334 334 335 336 337 338 337 337 336 335 335 334 333 333 333 334 333 332 332 330 331
317 317 315 313 314 315 316 318 317 317 318 319 318 318 318 317 319 319 320 321 324 332 335 341 343 340 341 346 350 351 350 350 351 351 350 350 349 349 349 349 348 348 347 346 345 343 343 343 343 343 343 342 341 341 338 338 337 337 338 339 340 339 339 340 340 339 338 338 338 338 339 340 339 337 337 335 334 335 335 336 337 337 337 336 335 334 334 333 332 332 332 334 333 333 332 331 332
316 317 314 313 316 318 319 318 317 318 317 318 318 317 318 317 318 318 318 320 324 330 334 341 343 342 344 348 349 350 350 350 351 350 350 350 349 349 349 349 348 348 346 346 345 344 344 343 343 343 343 343 342 341 339 337 336 338 338 339 340 339 340 340 339 339 338 338 338 338 339 340 339 338 337 336 335 335 334 335 336 336 335 335 334 334 334 333 332 331 331 333 334 333 334 334 333
316 317 315 315 317 318 319 318 318 317 317 317 317 318 318 318 318 318 318 319 321 324 332 341 344 344 346 348 349 349 350 351 351 351 351 350 349 349 349 348 348 348 347 346 346 344 344 344 343 343 343 343 342 342 340 337 337 339 340 340 340 340 340 340 340 340 339 339 339 338 338 338 337 337 338 336 336 335 334 335 336 335 334 334 333 334 333 333 331 331 331 332 334 335 337 338 336
316 316 315 316 317 318 318 318 318 317 317 317 317 317 316 317 318 318 318 317 320 323 332 343 345 344 345 346 348 349 351 352 352 352 351 350 350 349 349 348 347 347 346 346 346 345 345 344 343 343 342 343 341 341 340 336 337 340 340 340 339 339 340 340 341 340 340 339 338 337 337 336 336 336 337 337 337 336 335 336 336 336 334 333 333 333 332 332 331 331 330 331 333 335 338 338 338
316 315 315 316 317 317 317 319 317 317 317 316 316 316 316 318 318 318 318 317 322 326 337 344 343 343 344 345 346 349 351 353 354 353 351 351 350 349 348 348 347 347 347 346 346 345 344 344 344 344 343 343 342 341 339 337 339 340 340 341 339 339 340 340 340 339 339 337 336 337 337 336 336 336 337 337 337 337 336 336 337 337 336 333 333 334 332 332 331 331 331 330 332 334 336 338 337
316 316 316 316 316 317 318 317 317 316 316 316 315 316 316 318 317 318 317 317 319 325 338 343 341 343 344 347 347 349 352 351 351 349 350 351 349 348 348 348 347 347 347 346 347 344 343 344 344 344 344 342 341 340 340 339 340 340 340 341 340 340 340 340 340 339 337 335 335 336 336 334 335 336 337 337 337 337 336 337 337 336 336 333 334 335 333 332 331 332 332 330 332 333 333 335 337
315 315 316 316 317 317 318 317 317 316 316 316 316 316 317 316 317 317 318 319 318 324 336 340 341 342 344 346 349 350 351 346 340 339 345 349 349 348 347 347 346 347 347 346 345 342 342 344 343 344 343 340 340 340 338 339 339 340 340 340 340 340 340 340 339 338 337 335 335 336 335 335 334 335 336 336 335 335 335 336 335 334 334 333 333 335 334 333 332 334 333 331 333 333 332 335 336
315 315 316 316 317 317 318 317 317 316 316 316 316 316 316 316 317 316 317 318 318 321 334 340 340 341 342 345 348 350 350 346 339 338 344 349 348 348 346 346 347 347 347 346 341 339 342 342 341 342 342 340 340 339 338 338 339 340 339 339 340 341 341 341 339 336 336 336 335 336 335 334 333 334 335 335 334 334 335 334 334 334 334 333 333 334 334 333 334 334 334 333 333 333 333 335 335
314 316 315 316 316 316 316 317 317 316 316 317 316 315 316 316 316 316 317 317 318 319 330 340 341 341 343 344 348 349 349 347 344 342 346 348 348 348 347 347 347 347 346 343 338 340 343 342 342 342 340 341 340 339 339 339 340 340 338 339 340 341 342 340 337 337 337 336 335 336 335 333 333 334 335 336 335 335 336 335 335 335 335 334 334 334 334 334 335 335 334 334 333 333 332 332 332
315 316 316 316 316 315 316 316 317 317 317 316 316 315 315 317 315 316 316 316 319 318 322 336 340 340 342 343 347 350 349 349 346 346 347 349 348 348 348 347 347 347 344 340 340 342 342 342 342 341 341 341 341 340 340 340 341 340 338 340 341 341 341 339 337 337 338 336 335 336 335 333 333 334 335 335 336 337 336 336 335 336 335 335 335 335 335 334 335 334 333 333 332 331 331 331 332
316 316 316 316 317 316 316 316 317 316 317 316 316 316 315 316 315 315 316 317 318 319 320 328 336 337 337 341 346 348 348 349 348 349 350 349 349 347 348 347 347 347 343 341 342 341 341 342 342 341 342 341 341 340 340 341 341 341 340 341 341 340 339 338 337 337 337 337 336 336 335 334 333 333 334 334 335 336 335 335 335 336 336 335 336 335 335 335 335 335 334 333 333 332 332 332 332
315 316 314 315 316 316 316 315 316 316 316 317 316 314 314 315 315 316 317 318 318 320 320 324 335 336 335 338 342 346 347 347 349 349 349 349 347 347 347 347 347 346 342 342 342 340 340 342 341 342 342 341 341 340 340 341 340 341 341 341 341 339 338 337 336 337 337 337 336 336 336 335 334 332 334 333 334 335 336 337 336 337 337 337 337 337 337 337 336 336 335 335 336 335 334 333 333
315 315 315 314 314 313 315 316 315 315 316 317 315 311 312 315 316 316 316 317 318 321 321 326 335 337 337 338 339 344 345 346 348 348 347 348 347 347 347 348 348 347 344 342 342 339 339 342 342 342 342 341 340 339 340 341 339 340 340 340 339 338 339 339 337 337 337 336 335 336 336 337 335 334 334 333 335 337 337 338 338 338 337 337 338 338 338 337 336 336 335 336 336 335 333 332 332
315 314 314 313 310 311 316 316 315 315 315 317 315 309 311 315 316 317 317 316 319 320 321 327 335 337 341 343 339 340 342 344 346 342 340 345 346 346 347 349 348 347 345 343 342 341 340 343 343 342 342 341 340 340 341 340 339 340 340 340 340 338 339 339 337 337 337 336 336 337 336 336 334 334 335 335 336 337 337 338 338 337 337 337 337 337 337 336 335 335 334 335 335 333 332 331 332
315 312 311 312 310 311 317 316 316 315 315 316 314 309 311 315 315 317 317 316 318 320 321 326 333 337 340 342 339 338 339 340 344 342 337 339 344 346 347 348 348 347 346 344 343 343 343 344 344 343 343 342 340 340 340 339 339 339 339 339 340 339 338 337 337 336 337 336 337 337 336 335 334 335 336 337 337 337 337 336 336 337 337 336 336 336 336 336 335 335 335 335 335 334 332 332 332
315 312 309 310 311 311 314 316 316 316 315 316 314 312 312 315 317 318 317 317 318 319 320 324 332 335 337 339 339 339 338 338 340 340 340 337 339 346 347 347 347 346 347 344 343 344 344 343 344 343 342 342 341 340 340 339 338 338 339 339 339 339 337 336 336 336 337 336 336 337 336 335 335 336 337 337 337 336 337 336 335 337 337 335 337 337 336 336 335 335 336 334 334 334 332 331 332
312 313 311 311 312 311 312 314 317 316 315 315 316 314 314 315 317 318 318 317 318 319 319 322 332 333 333 337 338 337 338 339 337 337 339 337 337 344 347 347 347 347 347 345 344 346 344 343 344 342 342 342 341 340 339 339 338 336 337 337 338 337 336 337 336 336 336 335 336 336 336 335 335 337 337 336 337 336 336 335 335 336 336 335 337 336 336 335 335 336 336 335 334 334 332 331 332
311 312 311 311 312 312 312 314 317 317 316 316 315 315 314 316 317 317 319 319 318 319 320 319 329 334 336 342 343 338 337 338 337 336 337 337 340 345 346 346 347 346 347 345 345 346 342 341 343 342 341 341 340 340 339 339 338 335 335 336 336 336 336 336 336 336 335 334 335 335 337 337 336 337 337 337 337 336 335 334 335 336 336 337 337 336 336 335 335 336 336 336 335 334 333 331 332
313 314 313 312 311 312 314 316 316 317 316 315 315 314 315 315 315 317 318 319 319 319 320 320 324 334 337 343 348 344 341 339 336 335 335 336 341 346 347 346 346 346 347 346 346 346 339 339 344 343 341 340 339 340 339 338 336 335 336 336 337 336 337 336 336 335 334 334 335 335 337 338 337 336 337 337 337 336 335 335 336 336 337 337 336 335 336 335 336 337 336 336 335 333 333 332 332
316 315 314 312 312 312 316 318 316 317 316 314 316 314 315 316 315 317 318 318 319 318 320 320 317 332 337 337 340 342 343 338 334 334 336 337 341 346 347 345 345 345 346 346 346 345 340 338 341 341 339 339 339 340 340 336 334 336 337 336 336 337 337 336 336 336 334 334 335 335 336 337 336 335 335 337 337 336 335 337 337 336 337 336 336 336 336 336 336 336 336 336 335 333 333 333 332
315 314 313 313 312 313 316 318 316 317 315 315 317 316 315 316 316 317 317 317 318 317 319 321 318 327 336 336 334 336 338 340 341 339 336 337 343 346 346 345 344 345 345 346 345 345 340 336 335 335 338 339 339 339 339 337 335 337 337 336 336 337 337 336 336 335 335 335 334 334 336 336 335 334 335 336 337 337 336 337 337 336 336 336 336 336 336 337 336 336 336 335 335 333 333 333 332
314 314 314 313 314 315 316 317 317 317 315 316 317 315 315 317 316 317 317 316 317 319 318 319 319 322 329 332 334 336 339 344 349 342 335 337 343 346 346 346 344 345 345 344 346 344 337 334 332 333 336 337 337 338 338 338 337 338 337 336 336 336 336 336 335 335 335 335 334 334 335 335 334 335 335 336 336 336 337 337 336 336 336 336 336 336 336 336 335 336 336 334 334 333 333 333 333
316 315 314 313 315 314 312 314 318 317 317 317 317 315 315 317 317 316 318 317 317 318 317 318 319 320 322 323 332 338 339 343 344 338 335 339 342 345 346 347 345 345 344 345 345 341 335 334 333 334 335 335 336 337 337 338 338 337 336 335 337 336 336 336 336 336 336 335 334 335 335 334 334 335 336 337 336 336 337 336 335 335 336 336 336 335 336 336 335 336 335 334 334 334 333 333 334
317 317 316 314 315 314 312 314 317 317 317 318 316 313 314 316 318 316 317 318 317 317 317 317 318 319 320 318 330 337 338 341 339 335 336 341 343 344 344 345 346 345 345 344 341 336 333 333 333 333 334 333 335 336 337 337 337 337 335 335 337 337 337 337 336 337 336 334 334 334 334 334 334 335 336 336 337 337 337 336 335 335 335 335 335 334 335 336 335 335 335 334 334 334 333 333 334
315 317 317 315 314 314 314 315 315 313 312 316 316 312 312 315 316 316 317 317 317 317 317 318 317 319 319 317 328 337 337 338 339 336 336 340 342 344 343 342 344 346 345 340 333 332 332 333 333 333 334 334 335 336 337 336 336 336 334 334 336 337 337 337 336 336 335 333 334 334 334 334 335 335 336 335 335 336 336 335 335 335 334 335 335 334 335 335 334 334 335 335 334 333 332 333 334
311 314 316 315 315 314 314 313 313 310 309 315 317 312 310 312 314 317 317 317 316 317 317 317 317 317 318 318 323 334 336 336 337 337 336 338 341 343 343 342 344 346 340 331 330 332 333 334 334 333 334 335 335 336 337 336 336 336 335 333 334 336 336 337 335 335 334 334 334 334 333 334 334 335 335 334 333 335 336 335 335 335 334 335 334 334 334 334 334 334 334 334 334 333 332 333 333
311 314 315 315 315 314 314 313 312 312 312 315 316 312 309 309 313 317 318 318 317 317 318 317 317 318 318 318 318 327 333 334 335 337 338 338 339 342 344 345 344 339 331 327 329 332 333 333 334 334 335 334 334 335 336 335 336 335 334 332 332 335 336 336 335 334 334 334 333 333 332 333 334 334 334 333 332 335 336 335 335 336 335 335 335 333 334 334 333 333 334 334 334 334 333 332 332
313 315 315 315 315 315 316 314 311 312 313 311 311 312 310 309 312 317 317 315 316 316 317 318 317 316 318 320 323 327 329 330 333 336 340 340 339 342 345 343 338 332 330 328 329 333 335 333 333 335 334 334 334 334 334 334 334 334 334 332 333 335 336 336 335 334 333 333 332 332 332 333 333 333 332 332 332 334 336 335 336 336 335 335 334 334 335 334 333 333 333 333 333 333 333 333 332
314 315 315 314 316 316 316 314 312 312 312 310 310 311 310 309 310 314 316 316 319 322 321 323 323 320 324 328 331 331 329 328 329 331 339 341 340 342 342 338 334 332 331 330 332 335 335 332 333 333 334 334 333 333 334 333 334 334 334 333 334 335 335 335 335 334 333 333 332 332 332 331 332 332 332 332 333 333 334 335 335 335 334 334 334 334 334 334 334 333 333 334 334 334 333 334 333
315 316 314 314 316 315 315 314 311 311 311 310 310 311 310 309 310 314 320 320 323 327 326 328 330 328 330 331 332 331 328 327 327 328 336 340 338 339 338 336 334 331 329 331 332 332 333 333 333 333 333 333 334 335 334 334 335 334 333 334 334 333 334 334 333 332 332 332 332 332 331 331 332 332 332 332 333 333 333 333 334 333 333 333 333 333 333 333 334 334 333 333 334 333 333 333 333
315 315 314 313 313 313 312 311 311 311 311 309 309 310 309 309 309 315 325 325 324 327 326 328 331 329 329 330 330 328 328 331 333 334 337 339 337 334 333 334 333 330 329 329 328 329 333 334 333 333 332 332 335 335 333 333 334 331 331 334 334 333 334 334 333 333 332 331 332 332 331 331 332 332 332 332 333 334 333 333 333 333 333 333 332 332 334 334 334 334 335 334 333 332 332 332 332
316 314 313 312 311 311 311 310 311 311 310 310 310 310 310 310 313 320 327 328 327 327 326 327 328 328 328 328 329 331 334 336 336 334 333 335 339 333 330 332 333 331 329 327 328 330 333 333 334 334 331 333 335 334 332 332 330 325 326 333 334 333 334 334 333 334 333 332 332 333 332 331 331 331 332 332 333 334 333 333 333 333 333 332 332 333 334 334 334 334 335 334 333 332 332 331 331
315 313 311 312 311 312 312 311 311 311 311 312 312 312 309 311 319 326 327 327 329 328 327 328 326 329 332 331 331 334 337 335 333 332 331 332 334 332 329 330 332 331 329 329 330 332 332 332 334 333 332 334 334 334 333 331 330 330 327 328 333 334 334 334 334 334 333 333 334 332 331 331 331 331 332 333 334 334 333 334 333 332 332 332 333 335 334 333 334 334 334 333 334 334 332 331 332
315 315 313 312 311 312 311 311 312 313 314 313 314 314 310 313 324 329 326 326 328 326 328 330 330 332 333 334 335 336 336 335 331 330 331 330 330 330 330 329 329 330 331 332 332 333 334 333 333 332 332 333 333 334 334 332 332 333 333 331 333 334 334 333 334 332 331 333 333 331 330 330 331 331 332 333 334 333 333 332 332 331 331 331 333 334 334 333 334 334 333 333 333 333 332 332 332
316 316 313 312 312 311 310 311 312 314 315 314 314 314 314 320 328 327 326 326 325 324 325 330 331 332 332 333 336 337 337 336 333 331 331 331 330 330 330 328 328 330 333 335 335 335 335 334 332 333 333 333 332 333 333 333 333 334 334 335 334 334 333 333 333 331 331 331 330 330 330 330 330 331 332 333 333 332 331 331 331 331 331 331 332 333 333 333 333 332 333 333 332 332 332 332 332
314 314 312 313 314 312 311 312 312 313 315 315 313 314 316 321 325 324 326 327 327 327 327 329 332 332 332 333 334 335 336 336 335 334 332 331 330 329 329 328 328 329 332 335 336 335 336 335 333 333 333 334 333 332 333 333 333 334 335 335 334 334 333 333 332 330 330 329 329 329 329 329 330 331 331 332 332 332 331 331 330 330 331 330 330 331 331 331 333 332 332 332 331 332 333 332 332
313 312 313 314 315 314 311 312 313 314 315 314 313 313 315 319 323 326 329 329 328 329 330 330 333 331 330 333 332 332 335 335 334 334 334 334 333 331 331 330 329 330 331 334 335 335 336 335 335 334 333 333 333 333 333 333 334 334 335 335 334 334 334 333 331 330 330 329 329 329 329 330 331 330 331 330 330 331 331 330 330 330 330 329 329 329 329 330 332 331 332 332 331 332 333 332 332
314 313 315 315 313 311 311 311 313 315 316 316 313 312 318 324 325 326 330 331 329 330 330 331 331 330 329 331 331 332 333 334 334 334 334 334 334 334 333 333 332 331 332 333 334 334 335 334 334 334 333 333 333 334 333 333 333 334 334 334 334 334 334 333 332 331 330 330 330 330 330 330 330 329 330 330 329 330 330 330 329 330 330 329 329 328 328 329 330 330 331 331 331 332 332 332 332
314 314 315 316 314 313 312 312 312 313 315 316 314 313 323 329 328 328 331 332 331 331 330 329 329 328 328 330 331 332 333 333 333 333 333 333 333 334 333 333 332 331 331 332 332 333 334 333 333 333 332 332 333 334 334 333 333 334 334 334 334 334 334 333 333 331 331 331 331 330 330 330 329 329 329 329 329 330 330 329 329 329 329 329 329 328 328 328 328 329 329 330 331 331 331 331 330
314 312 312 313 314 314 315 314 312 312 313 316 315 318 327 330 329 331 332 331 331 330 329 328 327 326 328 330 330 331 332 333 332 332 332 331 332 333 332 332 332 330 329 331 331 331 332 332 331 331 331 332 333 333 333 333 333 333 334 334 333 333 333 333 332 331 331 331 331 331 330 330 329 329 329 328 329 329 329 327 327 328 328 328 328 327 327 328 328 328 328 328 329 329 329 328 329
314 313 311 312 313 313 314 315 314 313 314 316 317 322 328 330 329 331 330 330 331 330 327 327 327 327 329 330 329 329 330 330 331 331 330 331 331 332 332 331 331 331 330 330 330 331 331 330 330 329 329 331 332 333 333 333 333 333 333 333 333 332 332 331 331 330 329 330 331 331 330 329 328 328 328 328 328 328 327 326 326 326 327 327 328 327 327 327 327 328 327 327 327 327 326 326 327
Wind_Speed
6 6 6 7 9 10 9 6 4 4 5 7 8 9 10 5 5 2 2 4 2 4 8 5 4 3 3 7 5 12 14 10 8 4 4 6 12 15 17 23 24 23 21 20 24 23 20 21 21 22 23 23 22 22 23 23 23 22 21 21 22 24 24 22 21 19 17 17 17 17 17 16 15 15 15 15 14 13 13 13 13 14 14 14 14 14 15 15 14 14 14 14 13 12 11 10 11
7 8 8 9 10 9 5 5 5 4 7 7 9 10 5 1 2 4 3 7 7 7 5 4 4 4 2 5 5 7 14 12 10 8 8 13 16 17 20 22 23 23 21 20 22 22 18 20 22 22 23 23 22 22 23 23 23 22 22 22 23 24 24 22 20 18 17 17 17 17 16 16 14 14 15 15 14 13 14 14 13 14 13 13 14 13 13 13 13 14 14 14 13 12 10 9 11
9 12 11 9 9 8 5 4 6 6 7 8 8 5 3 2 3 6 8 8 8 7 2 3 4 5 4 3 1 7 9 9 12 10 8 14 15 16 21 22 22 23 21 20 20 21 18 20 22 22 22 23 23 23 23 23 23 23 22 23 24 24 24 21 19 18 17 17 17 16 16 15 14 14 14 15 13 14 15 14 14 14 13 13 13 12 11 11 12 13 13 13 12 11 10 9 10
11 12 12 9 6 6 5 5 7 7 7 8 5 3 2 4 9 7 7 7 5 4 3 4 3 2 1 4 6 9 9 8 11 9 6 12 17 19 21 22 22 21 21 20 19 20 18 21 22 22 22 22 23 23 23 24 24 24 23 23 24 24 24 21 19 18 18 18 19 17 15 15 14 14 14 14 13 15 16 14 14 14 13 13 12 11 10 10 10 11 12 12 11 10 10 9 9
11 12 13 10 5 4 4 5 6 7 8 8 4 5 6 8 10 6 5 4 3 3 4 4 3 4 9 10 6 5 7 8 9 10 10 16 23 23 23 24 22 21 21 20 20 18 17 22 22 21 22 22 23 22 23 25 24 24 23 24 24 25 23 20 18 18 18 19 18 16 16 14 13 14 14 14 13 15 16 15 14 12 12 12 11 10 9 9 9 9 9 9 10 9 9 9 8
11 13 12 10 6 5 4 6 6 8 10 10 6 5 8 8 9 5 2 2 1 2 4 6 5 7 10 8 8 7 5 6 6 8 13 18 24 24 23 23 20 21 21 20 20 16 18 23 22 21 22 22 22 23 23 24 24 24 24 24 24 23 21 19 18 17 19 19 17 16 16 14 13 14 14 15 14 15 16 15 13 12 12 11 10 9 9 8 8 7 8 8 8 8 8 8 7
12 10 7 8 5 4 6 7 7 8 8 9 7 6 9 7 7 2 4 1 2 2 5 6 4 7 8 5 7 9 7 6 7 9 17 20 23 23 21 21 20 21 21 20 19 17 20 23 22 22 23 22 23 23 23 23 24 24 24 24 23 21 19 19 18 18 19 17 15 15 16 14 13 15 16 16 15 16 17 14 12 11 12 10 9 9 8 8 7 7 7 7 6 7 7 7 6
13 8 3 6 5 5 7 7 8 9 4 5 4 9 7 5 4 2 4 2 1 1 5 3 5 3 6 10 6 6 9 8 11 17 22 23 22 20 19 21 22 22 21 20 20 20 21 23 22 23 23 23 23 23 23 23 24 24 24 23 21 20 19 19 18 18 18 16 15 16 16 14 13 15 17 17 16 16 15 13 12 12 11 10 10 9 8 8 7 7 6 5 5 5 6 6 6
12 8 4 6 6 6 7 8 8 10 7 1 5 9 5 3 3 3 5 6 3 3 7 4 5 4 8 14 9 6 8 8 18 23 22 22 21 19 19 21 23 22 21 20 22 21 21 23 23 23 23 23 23 23 23 24 25 25 24 22 21 20 19 19 19 18 17 16 16 16 15 13 13 15 18 18 17 16 15 14 13 13 11 10 11 9 8 7 6 5 4 4 4 5 6 6 8
8 7 5 5 6 7 7 9 7 10 9 4 8 7 4 4 4 4 5 8 4 3 4 3 3 8 12 11 8 6 7 10 19 22 19 21 20 19 19 21 22 22 22 21 22 20 20 22 23 23 23 23 23 23 23 24 24 25 23 22 21 20 19 20 20 19 18 18 17 16 14 12 13 16 18 18 17 16 15 14 13 13 11 10 11 9 7 6 6 4 4 3 4 6 6 7 11
5 5 5 5 6 7 7 7 8 9 4 6 4 6 4 3 4 5 4 7 6 4 3 1 1 11 15 8 7 7 9 13 18 18 17 20 19 19 20 21 21 21 22 22 21 20 20 21 22 23 23 23 23 22 23 23 24 25 23 22 21 20 20 21 20 19 19 18 17 16 15 13 14 16 17 17 17 16 15 14 13 12 11 11 10 8 6 6 5 4 4 4 5 7 8 9 12
6 6 6 6 5 7 7 8 8 4 6 4 1 8 4 2 2 5 3 6 6 4 4 4 6 10 11 8 6 7 11 14 18 18 18 20 18 18 19 20 21 22 23 23 22 21 20 20 20 22 22 22 22 22 22 23 25 25 23 23 22 21 21 21 20 19 19 19 17 17 15 14 14 14 15 17 17 15 13 13 12 11 11 11 9 7 6 6 5 4 4 5 7 8 9 10 11
6 7 6 6 6 7 9 9 8 4 1 3 5 8 2 1 2 5 5 7 7 2 2 4 12 10 8 8 7 7 10 14 19 19 18 19 16 17 19 21 22 22 24 23 23 23 21 20 19 19 21 21 21 21 22 24 25 25 24 23 22 22 21 20 19 19 20 19 18 18 16 15 14 13 15 16 16 14 13 13 12 12 11 10 8 7 7 7 6 5 5 6 8 10 10 11 11
7 6 6 6 6 8 9 8 7 7 0 9 8 5 1 1 3 4 5 9 8 1 5 5 10 12 9 8 6 6 10 15 20 20 18 16 16 17 18 22 24 23 23 22 23 24 22 21 20 19 21 21 21 22 23 24 25 25 24 23 22 22 21 20 19 20 20 19 18 17 16 15 14 13 15 15 15 15 14 14 12 12 11 10 8 6 7 7 6 5 6 7 9 10 11 12 13
7 5 6 6 6 8 8 7 7 8 2 10 5 4 1 1 3 4 6 8 6 4 5 4 5 6 7 9 7 8 13 18 20 21 19 16 17 16 19 23 24 23 23 22 23 23 23 22 21 22 22 20 21 22 22 23 24 25 24 23 22 21 20 19 19 21 20 18 17 16 16 15 14 14 14 14 14 14 15 14 12 12 11 10 8 6 8 7 6 6 6 8 9 10 11 14 17
6 6 5 5 7 7 7 7 7 7 4 8 3 6 3 1 5 3 2 5 7 2 3 3 2 2 6 8 11 15 18 21 20 20 19 18 18 17 19 22 22 23 23 24 23 22 22 23 23 24 23 21 22 21 21 22 22 22 22 22 21 20 19 19 21 22 19 18 17 16 16 15 14 14 13 12 12 13 14 13 12 12 10 9 8 7 8 8 7 7 7 7 9 9 10 15 18
5 5 6 6 7 8 7 3 3 2 8 8 4 7 3 0 3 2 3 6 9 1 3 2 5 2 5 8 18 23 20 21 21 20 19 18 18 18 19 18 18 20 23 24 23 23 23 23 24 24 23 23 22 21 20 21 21 21 21 20 20 20 20 21 23 21 19 18 17 17 16 15 14 13 12 11 12 12 12 11 11 11 10 9 9 9 9 8 7 7 7 7 8 9 9 12 15
6 5 6 6 6 7 3 7 6 4 9 7 6 6 3 2 3 4 1 9 8 2 3 6 10 9 10 16 23 24 21 22 21 20 19 18 17 17 17 18 19 19 22 23 23 24 24 25 25 24 24 23 22 22 22 21 21 21 20 20 19 20 21 22 22 20 19 19 17 17 16 14 14 14 13 13 13 13 12 11 11 12 11 9 9 10 9 8 7 7 7 7 7 9 8 10 12
7 6 6 8 8 5 5 7 5 6 7 4 3 2 1 3 4 4 6 8 6 4 5 7 9 10 12 17 20 22 22 20 20 19 18 17 16 15 15 17 19 20 21 23 23 24 24 25 25 25 25 24 23 22 22 22 22 22 20 20 20 20 22 22 21 20 20 18 17 18 17 15 15 15 14 14 14 13 13 12 11 12 12 10 10 10 9 8 7 6 7 7 7 8 8 7 8
7 7 6 9 7 5 6 4 4 6 4 4 3 2 2 5 5 1 6 10 7 6 6 7 10 9 9 12 15 19 20 19 19 18 18 17 16 16 16 17 18 20 22 22 21 22 23 24 24 24 26 25 23 22 22 23 24 22 21 20 20 21 21 20 20 20 19 18 18 18 18 17 16 15 14 14 14 14 14 13 12 12 12 12 11 11 10 10 8 6 6 7 7 8 8 6 5
7 7 8 10 5 6 4 3 5 5 5 6 5 4 4 7 5 3 7 8 7 5 4 11 14 9 7 10 11 14 15 15 16 15 16 16 16 16 16 17 18 19 21 19 17 22 23 22 24 24 25 24 22 22 23 25 24 22 22 21 21 21 21 21 21 21 21 20 20 18 18 18 17 15 14 14 15 15 15 14 14 11 11 12 12 11 10 11 10 8 7 7 7 7 7 8 7
6 7 11 13 9 8 4 4 4 4 6 8 8 8 7 7 4 4 10 8 5 1 9 17 17 12 10 10 10 11 11 12 14 14 14 14 15 16 16 17 17 18 21 18 16 23 21 19 24 24 24 25 23 22 22 24 24 22 22 22 22 22 22 23 21 20 20 20 19 18 17 17 18 16 13 14 15 15 15 14 13 12 9 10 12 11 9 10 11 10 8 8 7 6 7 9 8
7 7 10 13 10 9 6 2 2 2 5 8 8 8 7 7 6 8 10 10 8 4 15 18 16 13 12 12 10 10 10 8 5 6 11 14 14 16 17 17 17 19 21 18 18 22 17 19 25 24 26 27 24 21 18 20 21 20 21 22 22 22 22 22 20 20 20 20 19 17 17 17 18 16 14 14 14 14 14 14 13 12 9 9 12 13 10 8 9 11 9 9 9 6 7 8 7
9 8 10 12 9 9 9 5 2 2 6 8 7 8 8 8 7 10 8 8 12 1 17 19 15 13 12 12 11 11 9 6 1 8 13 14 15 16 16 17 18 19 19 19 19 18 17 24 29 25 25 24 22 21 18 17 16 17 20 22 22 22 22 21 20 21 21 21 19 18 17 18 18 17 15 14 13 13 14 14 13 13 12 11 11 12 12 8 9 12 9 8 9 8 8 8 7
11 11 10 11 9 7 8 7 6 6 7 7 8 9 10 10 8 12 8 5 13 3 16 19 16 13 12 12 11 10 8 9 10 13 18 14 15 15 15 16 17 18 18 16 15 16 20 28 28 24 24 23 23 23 22 21 18 18 19 19 21 21 20 19 19 22 22 21 20 19 18 19 20 18 15 14 14 14 14 14 13 12 11 11 11 11 12 10 10 12 10 8 8 8 8 7 7
9 11 11 11 10 9 8 8 9 8 7 6 10 10 11 12 9 12 10 8 14 3 12 18 18 14 12 11 10 10 9 10 11 14 18 17 16 16 16 16 17 18 17 14 14 19 25 27 25 24 24 23 25 24 23 23 20 19 19 17 19 20 18 17 20 22 22 21 20 19 19 21 21 18 16 15 15 14 13 13 12 11 10 10 10 10 11 10 8 9 10 9 8 7 7 6 7
3 8 10 11 11 10 9 9 10 8 7 8 10 11 11 11 9 10 9 13 17 7 7 14 18 15 11 10 11 9 9 12 14 17 18 17 15 16 17 16 16 17 16 16 17 23 24 25 26 26 26 25 26 24 21 21 20 19 19 18 18 18 17 19 21 22 21 20 20 18 19 21 20 19 18 14 13 13 12 12 11 10 9 9 9 9 9 9 8 8 9 9 8 8 7 7 8
7 8 8 10 11 11 11 11 10 7 7 9 11 12 11 11 10 10 10 15 16 7 8 12 14 13 11 10 10 8 8 12 16 17 15 14 14 15 16 16 16 15 17 18 22 24 23 25 28 28 28 27 25 24 21 19 21 21 20 18 18 17 18 21 21 22 21 19 18 18 18 18 17 18 17 13 13 13 13 12 11 10 10 10 9 9 8 9 9 8 10 9 8 8 8 6 6
10 10 9 10 11 12 13 13 12 9 8 10 11 10 11 12 12 12 13 17 12 9 10 8 11 11 11 9 8 8 6 8 11 14 15 15 15 16 16 15 15 15 17 20 22 25 27 26 27 26 27 27 23 24 22 20 22 21 20 19 19 19 19 21 21 21 20 18 18 17 17 17 15 17 16 15 14 13 13 12 11 10 10 9 9 9 9 9 8 7 9 8 6 7 6 5 5
10 10 8 9 10 11 14 14 14 12 10 9 7 6 8 11 15 15 16 18 12 11 11 6 12 11 8 5 6 6 5 7 9 10 14 17 17 16 16 15 16 17 19 20 21 26 29 26 25 25 25 24 23 24 23 22 24 22 19 19 19 19 18 19 20 20 18 18 18 18 18 18 15 16 16 16 15 13 14 12 10 9 9 9 8 9 9 8 8 6 6 6 6 4 5 5 6
8 9 7 7 6 9 14 15 14 12 11 8 4 5 8 12 15 17 17 18 13 10 9 9 13 12 7 2 5 6 7 9 8 9 15 16 14 14 15 16 18 17 20 23 23 27 30 26 25 25 25 25 23 25 24 22 23 21 17 15 16 17 18 18 20 21 18 18 17 16 19 18 15 17 17 16 14 13 13 12 10 9 9 8 7 9 9 8 9 8 7 6 6 8 8 5 6
7 7 7 7 7 10 12 13 13 11 9 9 7 6 8 13 17 19 22 16 12 9 10 10 13 14 12 7 5 6 9 11 12 14 15 16 14 13 15 16 19 18 18 24 27 27 28 27 25 25 27 26 24 25 23 20 22 20 15 14 14 14 17 19 20 20 17 17 17 15 17 17 16 17 16 15 14 12 12 11 11 11 10 8 7 8 9 8 8 9 7 6 6 8 9 6 6
7 7 7 8 9 8 6 12 14 12 8 9 11 8 8 10 12 6 16 12 10 10 12 11 13 14 13 12 9 9 11 10 11 14 13 12 17 13 14 15 19 19 18 23 27 26 27 27 23 25 28 25 25 25 20 17 18 18 15 15 16 13 16 17 18 19 17 17 17 15 15 16 17 17 15 15 13 12 13 12 11 11 10 9 8 9 8 7 7 7 6 5 5 6 11 9 8
7 7 7 9 11 9 5 11 14 14 9 8 12 9 10 10 8 4 9 8 9 11 12 10 12 13 11 10 9 9 9 9 8 9 10 11 19 16 14 16 18 19 19 21 24 24 26 26 24 28 27 20 22 23 19 18 15 14 13 14 16 15 14 13 14 15 13 13 15 16 16 16 17 16 15 15 13 12 13 13 12 11 10 10 9 9 8 7 9 7 6 5 3 5 10 10 9
8 9 7 8 10 11 9 7 11 11 9 7 10 9 9 12 8 5 10 9 10 10 10 11 10 14 9 4 3 0 4 5 5 7 9 14 20 18 15 16 18 20 20 20 22 23 23 23 23 26 24 19 20 19 19 20 15 13 15 14 14 13 12 11 10 10 9 10 14 16 16 15 15 15 14 14 14 11 11 12 13 11 11 11 9 9 8 6 8 8 7 5 4 7 7 8 10
12 10 9 9 7 10 11 3 11 9 8 7 9 9 8 11 12 9 9 12 11 11 10 11 10 11 11 6 4 2 4 7 5 7 12 16 18 16 14 16 19 20 21 20 22 23 22 24 24 24 22 19 19 20 21 21 18 17 19 18 16 16 15 14 12 11 10 11 14 16 16 13 12 13 14 14 14 11 10 11 12 12 12 11 10 9 8 7 8 8 7 7 7 11 10 10 13
15 13 10 9 8 9 11 7 12 9 6 7 7 8 9 10 12 12 9 9 12 12 10 11 12 9 13 11 10 9 6 4 7 12 15 14 13 14 14 16 18 20 21 21 23 23 21 26 27 24 22 19 21 24 22 20 21 20 21 22 20 18 16 13 12 12 11 12 14 15 15 13 11 11 12 13 13 11 10 10 10 12 11 10 10 9 8 8 8 8 8 7 8 12 14 13 13
14 12 9 9 10 7 8 7 11 9 5 6 7 9 11 11 12 13 11 11 11 11 10 11 13 10 14 16 16 13 10 7 3 7 17 14 11 13 14 16 16 18 22 22 24 22 21 26 25 22 23 24 24 21 17 17 19 20 21 21 19 17 14 13 13 13 12 13 15 16 15 16 14 13 12 12 13 11 10 11 10 12 11 9 10 9 8 8 8 8 8 8 8 10 13 13 13
12 8 7 8 9 7 8 8 8 7 3 3 5 8 11 12 13 14 12 13 13 11 11 11 12 11 11 15 17 16 10 8 9 8 17 15 11 12 14 16 17 18 22 23 25 20 19 24 25 23 25 23 18 15 14 14 17 18 17 16 16 15 15 15 15 13 12 12 14 15 14 16 15 14 13 11 13 12 10 12 12 12 11 9 10 10 9 9 8 8 8 9 9 9 11 12 11
8 6 7 8 9 8 8 8 8 7 2 3 6 8 10 11 11 11 10 10 11 15 15 11 11 12 11 12 11 16 15 11 12 13 15 14 13 13 15 18 20 20 19 22 24 15 20 26 26 25 22 19 19 19 18 16 17 16 12 13 15 15 16 16 14 12 12 12 14 14 13 14 13 11 12 11 12 12 10 12 12 13 12 9 10 10 9 9 9 9 9 9 11 11 10 10 8
7 8 9 9 11 12 10 11 10 7 6 4 5 8 8 9 12 11 10 10 11 15 17 12 13 12 13 13 9 16 17 14 14 14 14 12 12 15 20 22 20 20 21 16 8 14 28 27 19 18 16 15 18 21 20 18 17 15 11 12 15 14 15 15 13 12 13 14 15 15 13 13 13 11 11 13 13 12 12 12 12 13 12 10 10 10 9 9 9 10 9 9 9 10 10 9 8
8 10 13 13 14 15 14 14 11 8 8 8 6 7 6 9 14 15 12 14 15 14 17 16 13 12 13 12 8 14 14 13 13 14 14 11 11 14 20 22 20 21 13 10 23 26 28 23 18 18 16 15 18 19 20 19 16 15 12 12 13 11 11 12 13 13 14 14 14 14 12 13 14 12 11 12 13 13 13 12 13 13 13 12 11 11 10 9 9 10 10 10 8 8 10 10 9
7 9 12 14 16 16 16 15 10 8 8 5 6 8 6 7 10 11 12 14 16 15 16 17 13 12 12 11 8 12 14 14 14 14 15 13 13 11 15 22 22 13 12 29 28 21 20 20 21 23 22 22 23 22 22 20 16 14 12 10 9 8 8 10 12 13 13 13 13 13 12 13 13 13 11 10 11 13 12 12 13 12 12 12 11 11 11 9 9 9 10 10 8 7 10 12 11
7 8 11 14 16 15 13 14 11 8 8 8 10 11 7 7 8 11 13 12 12 11 12 16 14 10 11 11 10 7 8 12 13 12 15 15 14 14 18 21 10 11 22 21 14 14 19 23 22 23 25 27 27 24 23 23 20 16 13 11 10 10 10 11 11 13 14 14 14 13 12 13 13 12 10 9 11 11 10 11 12 11 11 11 10 11 10 9 9 9 9 11 9 9 9 10 11
8 11 14 11 9 9 8 10 9 8 8 8 11 11 8 8 8 10 12 12 11 11 11 13 11 11 11 6 1 6 6 3 6 6 10 12 13 16 14 5 11 19 16 13 16 18 19 21 20 21 24 26 29 27 24 21 19 17 15 14 15 15 13 12 12 13 15 15 14 13 12 12 12 10 8 10 12 10 9 10 11 11 11 9 10 10 9 10 9 9 11 11 10 10 10 9 12
9 13 14 6 5 8 8 8 7 7 9 9 10 10 8 7 7 7 8 9 7 4 5 5 3 6 6 6 10 11 10 4 2 4 7 9 9 6 9 18 19 18 16 20 24 20 20 23 22 22 25 26 28 30 28 24 23 22 20 18 18 17 14 13 14 14 16 15 13 12 10 9 8 7 6 10 11 8 8 9 9 10 9 7 8 8 8 10 10 9 11 12 10 10 10 9 12
8 10 11 6 6 8 8 6 7 6 7 10 12 13 11 8 7 5 2 2 2 5 3 5 7 5 6 9 9 8 8 8 6 2 5 6 7 13 23 23 19 22 24 24 23 21 22 25 24 25 28 28 28 30 31 31 33 29 24 22 21 20 17 15 17 17 16 15 14 12 10 8 8 8 7 9 9 9 8 8 8 8 8 6 7 7 8 9 10 10 11 11 11 10 10 9 9
7 7 6 5 5 6 7 6 7 7 7 10 12 14 13 8 8 4 3 3 6 7 4 5 7 6 6 5 6 7 7 8 7 4 6 9 11 16 20 18 17 20 20 17 19 22 23 25 27 27 29 31 31 31 31 34 35 28 25 27 26 24 21 19 20 18 17 17 16 14 11 10 10 11 10 8 8 9 9 8 8 7 7 7 6 7 9 9 10 11 10 11 11 10 10 10 9
8 8 6 6 6 6 7 6 6 7 8 9 11 13 11 7 7 0 8 7 8 8 3 2 3 3 5 6 6 7 7 9 10 7 7 6 5 8 12 10 11 14 13 11 14 20 25 28 29 29 31 34 35 35 34 35 35 30 29 31 30 29 25 23 22 19 18 18 16 15 13 11 12 12 11 10 9 9 9 9 9 8 7 7 6 7 8 9 10 11 10 10 10 10 10 10 10
9 9 7 7 6 5 6 6 6 7 7 8 11 11 9 6 2 7 9 7 9 9 5 3 4 6 7 7 5 5 6 9 7 5 5 3 3 6 9 6 7 10 10 10 12 17 24 29 29 28 30 33 34 37 38 37 37 34 32 34 36 35 30 26 24 21 20 19 16 15 14 12 11 11 11 11 11 10 9 9 9 8 7 7 7 7 7 8 9 9 9 10 10 10 9 10 11
8 9 8 8 6 6 6 5 6 6 5 7 8 7 7 5 2 7 6 5 7 7 8 7 8 7 5 4 4 5 5 7 7 4 5 5 4 5 6 5 4 6 11 14 14 15 17 22 25 25 28 32 33 35 36 35 33 27 23 31 39 37 32 28 25 24 23 20 17 15 15 14 12 11 13 12 11 10 9 9 9 8 8 7 7 7 7 8 9 9 8 9 10 10 9 10 11
8 8 9 8 7 7 5 5 6 3 3 6 5 4 3 0 4 6 7 7 6 4 6 7 6 5 3 2 6 7 7 8 7 3 1 2 4 6 4 4 2 8 13 13 13 13 13 15 19 21 25 29 30 29 29 28 24 17 15 23 31 32 30 27 25 25 24 20 18 17 16 14 12 12 13 12 11 10 9 9 9 8 8 7 7 7 7 7 8 8 8 8 9 9 8 9 10
5 7 9 9 9 9 5 5 5 2 4 5 3 5 3 2 3 4 7 8 10 9 5 6 5 6 5 5 6 5 5 7 5 5 5 5 4 2 5 10 11 13 13 11 10 10 11 12 15 17 19 21 22 22 21 21 19 16 15 19 23 26 27 26 25 25 23 20 20 18 15 13 12 12 12 12 11 10 9 9 9 9 9 8 7 6 6 6 7 8 8 7 8 8 7 9 10
6 5 7 8 9 9 5 5 5 5 7 5 5 9 4 2 2 3 7 9 10 5 3 5 8 8 6 6 5 4 3 6 5 5 5 5 7 7 9 12 13 14 12 9 8 8 8 8 11 15 15 15 16 18 19 20 19 19 20 20 23 24 24 24 24 24 23 21 19 17 14 13 14 14 13 12 11 10 10 9 9 10 9 7 7 6 6 6 6 7 8 7 8 8 7 8 10
10 7 7 6 6 7 5 5 5 6 6 4 7 10 2 3 0 2 5 6 4 2 2 8 9 7 5 5 4 3 3 6 6 6 5 4 4 3 3 2 2 3 3 4 4 5 5 4 6 11 13 13 13 15 17 19 20 22 21 22 24 24 23 23 24 23 22 20 17 16 16 15 15 14 13 12 11 10 10 9 10 9 8 7 6 5 5 5 6 6 6 6 7 8 8 8 9
12 10 8 6 5 5 4 4 5 6 6 5 7 7 0 4 4 4 6 6 4 5 8 8 7 7 7 5 4 4 6 8 7 7 6 6 6 6 5 5 7 9 8 4 2 1 2 2 3 5 9 10 11 14 17 19 21 22 21 22 24 23 23 24 25 24 22 17 16 17 17 16 15 14 13 12 11 11 11 11 11 9 8 8 6 5 5 5 6 6 6 5 5 7 7 7 8
9 9 9 7 6 4 4 4 4 5 5 4 6 4 1 3 5 6 6 5 6 9 11 7 5 4 3 4 5 6 8 9 8 8 8 8 9 10 10 10 11 9 6 4 4 2 1 3 4 6 9 12 14 17 17 18 21 22 21 22 24 24 25 26 26 26 21 16 16 18 17 16 15 14 13 12 11 11 11 11 11 10 10 9 6 5 5 5 6 6 6 6 5 5 7 7 7
9 8 8 8 7 6 6 6 5 5 4 4 4 0 2 2 4 7 6 4 6 10 11 7 3 3 3 7 8 9 10 9 9 9 9 10 10 10 13 13 11 8 5 5 6 4 1 1 1 6 12 15 16 18 18 18 20 22 22 22 25 27 28 27 27 26 21 17 16 17 17 15 15 14 14 12 11 11 11 10 10 9 10 9 7 6 5 6 7 6 5 5 5 6 8 8 7
Wind_Direction
248 250 249 258 254 261 264 235 242 218 224 258 249 252 248 267 345 293 122 79 18 58 52 14 27 340 302 314 328 63 56 44 38 30 93 119 113 114 120 120 122 124 127 136 145 146 150 157 160 164 166 167 167 164 162 160 158 156 154 151 149 149 149 148 145 143 140 139 138 134 131 129 127 126 123 118 117 114 110 107 108 108 108 106 100 95 90 86 83 82 83 86 92 95 91 89 97
246 256 247 251 251 255 261 214 247 239 219 247 245 245 236 131 284 276 21 67 61 57 47 346 335 292 282 299 279 79 65 62 75 80 104 117 109 116 125 124 125 127 132 134 140 142 145 156 162 165 167 169 168 165 162 160 159 157 154 151 149 150 151 149 146 144 141 141 141 136 133 132 130 128 126 121 119 117 111 110 114 113 112 108 106 102 96 90 85 82 81 81 85 91 92 91 105
249 265 254 238 236 241 263 231 238 256 238 249 251 227 173 150 67 51 45 57 51 47 32 294 285 271 229 213 212 88 76 75 89 95 121 126 116 123 129 129 130 129 133 133 134 137 141 157 164 165 168 170 168 166 163 161 159 156 154 151 151 152 153 151 147 145 143 144 145 139 135 134 132 130 127 124 123 120 117 117 119 116 113 110 111 108 100 95 89 86 81 78 79 82 86 91 111
250 265 262 243 229 222 243 244 233 257 257 258 273 63 89 68 62 56 48 45 17 356 306 293 274 261 360 51 64 82 84 72 90 108 123 126 127 131 131 130 131 130 134 135 133 135 146 160 164 166 168 169 167 164 161 160 158 155 153 151 152 154 155 153 148 146 146 149 149 145 140 136 134 133 129 128 126 122 124 124 121 119 117 115 116 112 105 99 94 91 82 78 77 76 79 88 114
252 261 260 249 249 242 240 251 238 247 252 268 289 57 41 55 63 50 37 26 333 289 269 282 255 119 65 42 39 69 78 69 83 99 93 110 125 130 130 131 133 134 139 136 133 136 149 160 164 166 166 166 164 162 160 159 158 155 154 153 154 155 155 153 149 148 148 150 150 149 148 142 138 138 134 131 127 127 128 125 125 126 123 120 120 117 111 103 98 93 84 81 80 79 78 83 107
245 254 248 237 265 293 274 253 240 241 243 264 277 77 66 55 52 45 339 288 154 264 242 252 249 107 82 56 59 56 59 96 107 97 102 119 128 129 131 134 138 138 139 136 133 137 149 161 163 164 164 163 163 161 159 157 157 157 156 156 155 155 154 154 153 151 151 151 149 148 151 147 141 141 138 132 127 127 128 129 134 133 125 123 122 123 119 108 100 92 86 87 84 84 80 79 98
239 250 224 218 252 269 256 253 248 252 237 243 271 64 79 64 51 10 316 324 118 218 210 242 249 106 108 116 74 56 56 102 125 107 115 128 131 132 133 135 139 137 136 135 135 142 154 161 161 162 162 161 162 160 159 157 158 158 158 156 155 154 154 155 155 153 152 151 148 146 149 148 142 140 138 133 127 128 133 138 138 131 131 133 130 127 121 109 106 104 99 97 91 86 81 78 92
239 254 230 224 237 231 237 252 252 260 254 240 300 55 73 55 50 307 326 319 360 229 175 208 242 194 114 107 83 70 62 71 109 113 121 129 134 139 139 136 139 140 137 134 141 150 158 160 159 160 159 160 161 160 159 158 159 158 158 156 154 154 154 156 154 154 153 150 146 145 147 148 148 143 140 138 135 136 142 146 138 134 143 144 137 127 121 119 122 122 112 102 95 84 85 87 100
234 241 248 244 243 245 238 249 250 255 255 228 46 65 68 12 10 303 300 276 313 271 207 192 215 182 103 94 90 90 70 74 109 116 122 130 139 142 141 139 139 143 140 137 148 154 157 158 157 158 156 159 160 160 160 160 161 159 157 155 153 154 154 155 153 152 150 149 146 145 146 148 151 146 144 144 145 149 151 150 144 147 156 151 139 130 126 130 130 128 114 93 86 83 89 97 113
225 226 242 254 248 255 245 246 244 249 246 108 79 77 57 7 351 306 286 278 306 290 214 179 225 136 110 98 97 87 86 102 108 113 126 136 143 144 142 140 141 144 142 143 150 149 152 157 156 157 156 157 158 159 160 160 162 159 157 155 154 154 154 155 153 151 149 149 148 146 145 144 145 145 147 148 150 155 155 155 153 155 161 151 136 133 138 142 140 129 112 89 87 96 100 108 122
226 219 231 258 251 251 251 249 241 236 195 85 68 79 49 356 352 302 272 274 277 270 218 187 262 119 107 91 94 95 108 116 113 119 135 144 145 144 142 141 143 144 141 143 146 144 150 156 154 156 157 157 159 159 160 161 161 160 158 157 155 155 156 156 154 153 152 151 150 149 145 141 143 146 149 149 151 154 156 161 160 156 156 146 136 143 145 139 142 123 102 93 95 103 104 111 125
243 225 212 244 251 254 260 262 264 238 118 101 149 94 66 310 7 296 295 291 268 235 224 158 132 117 104 96 98 115 127 123 124 134 142 147 148 145 146 143 142 140 141 141 141 145 148 153 154 155 157 159 160 160 162 163 162 162 160 159 157 157 157 157 156 155 155 155 153 152 147 143 145 149 152 152 154 155 157 164 163 156 150 141 142 151 141 134 138 118 101 106 105 105 102 105 122
244 243 231 243 253 265 272 275 289 301 101 87 107 105 98 312 29 314 337 309 276 239 276 138 132 113 97 104 107 134 141 130 132 141 144 149 151 148 149 143 138 138 142 142 141 146 146 150 153 156 160 161 163 163 165 165 165 164 162 161 159 158 158 157 159 158 158 159 157 155 152 149 149 153 155 157 160 159 162 166 163 157 151 147 154 154 142 143 140 115 105 119 114 107 102 101 118
236 249 257 263 270 268 274 280 290 286 359 85 93 112 175 22 45 323 305 274 262 187 352 29 110 103 106 120 122 155 148 138 139 145 149 150 152 152 149 141 138 139 142 143 143 145 148 150 152 159 163 161 165 165 165 166 166 166 163 163 160 158 157 158 161 160 160 161 162 160 155 152 152 158 160 162 163 165 170 170 165 158 155 159 166 159 147 149 138 111 106 126 123 109 104 100 111
240 257 264 270 274 264 268 266 273 281 75 91 94 82 314 310 79 291 271 268 302 47 356 355 113 110 146 155 146 162 152 146 145 148 152 149 152 154 146 141 142 143 144 145 144 147 150 151 153 161 162 162 167 165 167 168 167 166 164 163 160 159 158 160 163 162 161 162 166 163 159 154 152 160 161 164 167 172 177 173 167 160 161 165 165 156 149 153 137 110 103 126 133 118 108 103 108
244 269 270 260 261 258 260 247 247 263 92 90 82 74 289 261 91 298 328 286 299 50 277 274 140 132 165 166 144 149 153 151 150 150 151 150 153 152 143 143 149 149 147 147 149 153 153 153 156 159 160 163 165 165 169 170 168 166 164 163 161 160 158 159 161 161 161 163 167 165 161 155 151 157 160 164 169 176 179 174 170 164 164 164 158 155 154 159 142 119 108 125 141 130 115 110 111
239 251 261 253 251 247 253 270 271 249 92 85 58 57 312 352 84 309 65 255 262 135 212 354 13 29 121 126 132 143 152 151 152 152 152 153 154 153 146 144 153 154 151 152 154 157 157 158 158 158 160 161 160 161 166 169 168 166 164 163 161 159 156 157 159 159 161 162 164 164 162 157 153 155 157 159 162 172 176 173 175 169 169 170 162 159 163 166 148 130 118 121 142 140 125 119 118
241 229 244 246 242 243 292 20 8 24 68 64 45 41 317 354 16 347 10 233 225 176 184 88 37 30 81 110 130 142 152 153 155 157 157 157 158 159 154 152 160 161 158 158 162 164 162 160 160 159 160 158 157 158 161 166 166 165 167 164 161 159 157 158 159 158 159 159 159 161 161 159 157 155 158 158 159 167 171 174 179 175 177 182 173 168 173 173 155 140 132 126 138 149 143 128 126
237 232 238 241 247 272 5 21 351 17 44 29 37 60 321 341 347 339 305 266 211 192 188 131 84 64 87 116 134 144 151 157 161 165 164 161 164 165 162 163 166 165 163 165 169 170 164 161 162 159 158 157 156 157 160 166 164 166 168 164 162 161 159 158 158 158 158 158 160 161 161 162 160 157 160 161 160 163 166 171 177 182 184 185 183 179 182 179 161 144 144 138 136 151 150 136 136
226 236 242 238 254 333 5 353 340 15 15 340 347 33 24 293 297 337 305 307 280 231 188 149 117 92 100 126 138 147 154 163 169 173 170 168 170 168 168 170 170 168 167 168 169 169 165 161 162 158 157 157 156 156 160 166 165 167 168 164 163 161 159 157 157 158 159 163 167 167 164 165 162 160 163 164 164 164 165 168 173 184 186 185 186 184 184 180 169 156 157 157 154 153 146 155 168
213 224 245 249 282 341 334 350 4 5 340 324 312 312 301 282 320 356 292 297 287 259 140 119 121 125 139 140 146 159 162 164 176 182 174 174 173 170 175 175 173 168 164 163 163 167 164 159 162 158 156 157 156 159 162 167 166 167 168 165 166 163 160 160 162 162 164 170 173 170 166 166 163 165 169 167 166 165 167 170 174 183 184 184 183 186 188 182 177 169 172 174 168 168 167 180 182
230 232 251 264 294 318 323 20 8 348 319 300 283 279 283 294 324 292 276 277 291 25 105 114 131 151 149 151 160 169 173 174 182 183 179 178 174 173 175 176 170 161 162 161 159 166 161 156 160 157 159 162 160 163 165 167 168 169 169 167 168 166 162 162 165 168 171 174 173 170 168 167 165 168 172 166 167 170 174 175 176 179 177 179 178 180 187 190 189 179 188 191 180 198 205 198 188
244 245 249 263 278 282 291 349 360 348 300 287 283 282 291 306 299 271 269 271 293 63 111 119 136 152 146 155 170 179 183 180 191 201 191 180 178 180 173 176 172 160 164 168 164 162 156 159 164 163 166 166 164 166 166 170 172 171 171 169 168 167 164 163 166 172 174 172 172 173 172 171 168 169 172 167 168 172 176 178 181 183 180 181 180 180 186 198 193 182 196 196 183 199 211 208 196
237 252 255 260 263 262 272 285 302 312 284 279 281 286 287 284 277 266 259 259 278 91 119 126 138 153 154 156 171 189 176 135 154 257 235 195 184 187 174 177 175 163 168 174 168 153 151 168 173 172 169 165 167 169 167 175 180 175 172 171 170 168 165 165 172 176 173 171 174 174 171 172 167 164 169 170 172 174 179 184 186 188 189 188 182 183 190 199 193 190 201 197 195 203 208 206 189
232 247 258 263 272 270 272 281 281 270 267 271 269 270 268 262 265 267 268 267 268 223 122 134 140 155 166 164 175 186 169 143 169 224 243 216 190 191 183 181 173 167 171 165 150 145 164 176 177 175 171 169 171 170 172 177 181 178 174 175 175 169 165 168 174 175 173 173 175 174 168 167 165 161 171 183 185 185 188 188 185 186 190 187 183 186 194 198 193 192 193 193 207 202 198 201 190
229 240 249 256 264 262 259 260 258 257 254 258 260 257 254 252 253 260 261 261 261 234 122 141 142 155 167 165 178 182 177 170 177 210 232 220 196 194 191 184 178 177 165 132 134 165 178 178 174 174 175 174 174 173 174 175 175 173 175 182 177 166 167 171 170 171 174 176 178 178 172 170 171 168 174 185 186 185 182 177 178 184 185 183 185 186 189 190 186 190 188 188 200 195 196 204 200
245 250 253 258 263 262 260 255 251 254 254 254 258 259 259 251 242 246 241 245 250 228 162 157 141 151 162 164 179 183 185 183 188 203 218 215 199 197 193 186 188 177 146 134 162 179 180 177 174 174 176 177 179 174 167 171 173 170 176 183 173 167 171 172 170 171 172 176 178 182 181 177 179 175 173 182 183 178 175 172 175 180 181 182 183 180 176 177 179 187 187 188 195 191 195 203 204
269 265 270 268 269 269 263 261 257 252 253 255 256 260 262 253 245 243 235 241 239 213 208 186 146 147 161 172 178 179 197 195 195 203 212 211 198 197 193 188 189 165 145 165 183 179 180 181 176 175 177 178 180 174 167 175 176 173 178 176 169 172 174 172 172 170 168 172 175 181 181 177 180 174 170 188 190 178 177 178 179 181 182 180 178 173 172 178 177 180 186 190 197 195 196 210 207
262 265 273 265 261 258 250 248 246 238 241 244 244 251 250 244 243 241 245 248 225 191 229 202 130 143 166 178 181 177 199 210 211 211 208 205 202 198 192 189 187 162 154 178 184 179 182 180 175 178 179 177 179 179 176 176 173 173 175 173 172 173 170 169 170 169 169 173 176 178 176 176 179 172 177 197 191 178 179 176 176 180 178 178 179 169 168 180 176 183 194 189 203 205 202 219 188
253 254 258 264 263 251 239 232 229 228 232 231 233 249 247 240 233 226 240 247 211 187 222 177 125 145 158 165 183 178 198 219 228 234 222 207 200 195 191 184 182 169 158 170 178 177 179 176 173 177 179 179 180 182 179 176 175 174 174 176 176 171 167 167 166 166 169 175 180 177 175 179 177 174 190 203 188 177 178 172 173 176 177 184 187 173 169 180 174 184 200 195 206 170 157 204 171
251 250 240 246 256 255 240 218 207 218 219 200 192 253 264 263 241 216 227 239 212 194 215 178 144 142 133 162 204 188 208 219 214 246 254 235 207 191 190 177 175 179 162 165 174 173 177 177 171 172 177 180 179 183 180 175 176 171 169 171 168 169 171 171 168 168 170 177 182 177 176 180 176 182 193 193 182 176 174 172 175 178 182 185 186 180 177 185 183 183 191 202 192 125 124 176 147
233 244 243 231 232 260 248 196 183 212 205 176 197 250 253 266 263 219 211 221 197 193 221 195 157 146 147 164 210 204 212 220 204 210 234 252 239 197 192 181 177 185 170 170 173 169 176 177 171 172 174 175 179 185 180 171 170 164 163 161 154 165 173 173 171 172 173 175 180 178 176 178 183 192 191 183 178 172 172 180 183 182 180 179 184 188 187 189 186 182 185 196 186 133 127 157 153
218 225 243 239 227 248 233 161 171 206 190 173 206 249 250 267 308 238 189 183 173 199 232 207 161 158 165 164 190 205 204 213 210 203 198 239 255 217 194 192 184 187 179 179 176 170 175 174 173 176 172 174 177 177 172 171 172 163 162 159 154 163 173 173 171 175 180 176 180 182 175 179 191 193 184 180 176 170 178 186 190 186 176 181 189 185 191 186 170 176 179 178 191 144 124 148 175
213 214 236 252 246 254 231 166 182 204 192 191 205 226 262 270 330 42 140 161 198 217 234 222 169 167 183 171 177 198 203 203 205 211 185 211 245 231 205 196 189 190 187 187 184 176 175 171 172 175 172 173 170 163 161 170 173 164 159 155 157 166 176 179 171 174 182 174 180 188 178 178 191 187 177 179 176 178 188 188 194 192 176 185 188 178 191 188 169 170 166 157 174 138 130 160 177
222 207 210 241 255 266 263 180 173 192 184 215 227 217 251 263 256 188 155 176 229 241 240 241 192 162 162 120 101 231 268 243 204 209 194 208 230 227 211 200 192 194 192 193 192 182 173 167 167 169 169 168 163 158 162 167 159 149 150 148 160 170 176 186 177 174 187 179 182 192 183 177 187 182 176 182 181 187 196 190 190 186 181 188 184 178 183 175 168 166 158 154 133 122 138 168 163
243 236 226 230 241 257 269 188 150 177 181 203 241 238 237 255 258 239 191 181 210 241 247 246 219 163 140 127 117 76 315 298 290 256 225 219 225 219 211 206 199 197 197 197 199 190 172 164 160 159 163 162 160 160 161 161 145 138 150 153 165 175 175 186 187 181 189 185 181 185 180 179 189 182 179 185 185 191 192 184 177 174 187 192 182 180 175 171 174 167 159 161 139 119 121 144 155
259 277 281 261 254 241 246 210 166 191 226 212 233 259 255 256 263 264 253 215 201 213 234 251 239 175 145 160 162 153 181 243 322 300 260 233 224 218 211 214 208 199 200 200 202 195 174 172 170 159 158 162 175 174 157 151 147 148 162 165 170 176 174 181 189 189 190 186 183 184 180 181 189 184 187 190 186 191 186 177 172 174 188 193 184 178 169 175 176 168 163 159 148 130 126 138 148
266 287 302 276 267 255 243 219 165 173 224 226 236 261 264 262 261 264 269 265 241 210 207 239 246 203 163 171 169 162 171 159 90 299 266 243 223 219 214 224 219 200 202 205 207 197 169 171 173 161 165 170 183 180 143 135 152 163 174 171 167 170 170 176 187 190 189 189 191 192 187 186 190 184 192 197 188 190 184 177 181 182 188 194 191 178 163 171 167 166 166 151 148 140 139 145 143
263 273 277 262 267 277 266 239 169 163 205 235 251 263 265 260 253 251 247 251 263 251 219 213 237 239 202 185 171 159 160 156 148 203 243 232 210 219 221 228 230 215 210 208 210 203 159 156 162 162 170 166 162 161 140 142 161 173 176 166 161 166 171 181 191 189 183 188 195 197 191 191 194 182 186 202 192 189 188 185 189 188 189 193 191 176 162 170 168 167 165 154 148 139 143 151 150
256 254 252 248 254 264 270 248 205 191 223 292 291 283 274 272 267 264 256 247 257 267 253 213 215 246 238 222 188 153 155 167 174 196 217 206 192 210 219 222 227 227 223 215 214 195 137 143 159 163 161 149 147 161 167 167 170 176 175 166 171 172 171 180 189 186 185 187 189 193 190 191 196 182 185 202 195 192 195 193 196 194 193 192 187 177 163 170 176 172 170 166 155 141 142 152 161
247 244 248 250 250 251 256 261 255 228 199 205 268 278 266 265 265 262 264 258 249 259 266 235 207 232 247 240 195 152 161 171 179 195 198 192 190 201 215 222 222 223 230 233 208 126 117 124 142 149 136 134 150 159 164 167 170 177 173 168 176 169 164 174 178 178 184 185 184 190 189 189 193 189 196 204 198 201 202 196 200 203 198 187 180 180 172 176 186 178 170 171 165 154 152 154 164
247 233 236 249 261 263 261 265 273 264 226 198 216 260 260 243 244 245 242 242 236 234 254 252 218 214 239 248 196 155 167 172 175 189 185 186 197 204 218 222 221 226 220 85 77 96 110 111 116 128 127 142 162 162 163 167 171 176 167 162 173 169 163 175 181 181 183 187 192 194 190 190 193 196 209 215 206 206 206 200 201 207 202 188 184 186 180 181 189 182 171 172 176 170 163 157 158
250 239 229 233 245 256 265 269 270 269 269 254 241 258 274 258 250 257 254 245 237 222 227 240 235 217 220 240 223 172 173 180 180 183 176 181 195 202 222 225 226 224 107 85 82 94 119 132 134 139 147 157 164 165 165 169 173 175 170 168 181 190 183 184 189 187 185 191 196 194 193 197 199 201 209 224 220 207 204 202 200 205 204 197 196 191 185 188 189 186 179 173 172 162 159 157 156
242 249 244 233 234 236 245 257 257 267 288 285 267 266 272 273 269 276 279 271 259 247 229 225 225 229 226 226 224 193 170 181 186 181 174 181 191 196 215 225 213 84 78 87 102 115 135 148 146 149 159 158 156 156 161 173 181 182 189 202 208 211 201 189 188 188 188 191 194 194 200 202 203 202 204 226 228 204 192 199 199 201 203 201 200 192 190 194 187 186 182 174 169 158 152 157 162
238 247 253 254 266 268 259 258 254 259 269 262 260 262 258 257 254 259 269 268 256 252 249 241 224 228 244 245 288 358 14 151 186 193 179 178 193 201 204 188 81 77 72 89 116 128 143 155 155 158 162 159 157 154 150 160 175 179 187 201 210 210 198 185 184 187 188 190 192 196 201 205 205 196 196 228 231 204 188 200 201 200 202 200 200 198 197 192 183 182 178 169 165 161 155 155 163
233 250 261 260 262 273 270 268 267 258 253 251 251 254 260 265 258 252 257 263 266 251 248 281 281 233 266 3 22 360 352 354 284 233 183 165 183 181 77 63 73 92 108 119 128 141 158 165 164 160 162 162 160 157 149 153 170 177 180 190 201 202 190 185 187 185 188 190 190 196 199 202 199 181 192 226 222 198 192 200 196 197 200 197 197 199 192 185 180 177 173 164 159 162 164 160 162
233 246 262 253 221 243 255 254 265 265 254 253 250 248 253 265 268 264 250 240 66 64 68 48 33 22 15 19 18 358 335 326 322 221 157 108 73 56 61 69 84 104 120 131 136 146 162 168 160 156 166 165 160 163 166 169 174 178 185 190 195 196 191 186 184 182 187 188 186 195 196 184 174 172 195 219 207 188 187 185 182 189 192 187 189 190 179 176 180 176 174 169 164 168 175 175 168
236 240 247 251 228 228 236 230 234 241 249 254 254 251 245 248 264 247 124 110 99 86 60 53 44 24 16 20 17 351 328 340 4 45 69 59 54 56 66 77 93 112 129 137 139 152 164 167 161 160 168 168 166 172 175 176 174 173 185 191 190 192 192 187 180 178 182 184 184 188 182 172 172 169 177 198 198 184 178 174 175 178 181 181 182 183 174 172 175 169 166 169 171 173 176 178 180
218 232 220 235 243 225 227 228 223 231 246 250 252 256 247 244 274 34 91 70 71 82 74 43 45 23 1 4 15 359 4 35 35 28 36 47 57 72 84 90 98 113 128 137 153 168 168 167 168 168 170 173 177 176 175 177 177 174 178 185 189 190 189 187 182 175 175 181 184 182 174 173 173 161 165 191 194 178 172 170 169 171 178 179 175 180 176 170 169 165 165 168 170 174 171 171 179
207 226 218 220 235 232 228 227 235 243 250 255 255 259 253 250 323 56 69 49 44 55 59 11 349 35 21 349 3 22 45 67 58 21 13 20 38 77 96 99 95 112 136 158 180 185 172 169 173 171 174 181 182 180 180 184 185 181 178 181 187 186 183 184 183 179 179 182 184 181 174 174 170 160 172 192 185 170 170 166 161 165 170 172 177 180 172 167 166 165 168 168 166 171 173 172 176
207 226 234 229 230 241 242 231 241 252 275 292 279 260 253 249 129 92 95 72 40 34 53 26 352 35 48 332 13 40 50 76 78 35 343 339 16 67 101 99 92 143 173 181 187 186 174 172 174 173 179 186 187 187 190 192 191 194 193 183 180 179 178 180 183 186 185 183 183 181 177 176 173 172 179 181 173 168 166 160 158 159 162 171 180 170 161 170 173 167 170 175 175 176 174 174 177
208 216 228 232 233 242 253 259 263 275 294 293 286 280 307 183 150 135 131 114 68 21 64 61 10 24 40 356 30 27 33 63 82 87 320 300 4 23 71 113 185 213 201 191 187 182 173 172 173 173 179 188 192 194 196 197 194 204 208 181 171 172 173 175 180 185 184 181 182 180 175 171 169 172 172 168 167 166 159 155 156 157 160 166 168 158 159 173 173 167 173 178 179 181 177 175 180
215 213 225 230 234 240 247 257 258 253 257 259 244 267 309 106 151 95 90 84 52 20 32 76 68 48 33 33 35 8 28 61 75 100 125 150 126 111 168 176 196 211 207 199 195 189 180 171 169 170 175 184 194 198 198 197 192 190 185 173 168 170 170 172 177 179 177 176 176 172 166 162 163 166 163 161 163 161 156 156 156 157 159 159 161 158 163 174 170 169 179 177 172 178 181 178 184
238 230 232 228 231 242 248 247 240 226 240 246 226 242 246 155 191 54 60 60 53 30 354 55 65 60 42 41 36 348 16 55 55 73 94 117 130 156 175 176 184 197 207 209 198 181 169 163 166 171 175 182 193 197 194 190 185 179 175 170 168 167 167 171 173 170 167 166 167 168 162 158 161 162 158 158 160 156 157 158 154 155 156 157 163 162 164 174 172 172 184 186 176 176 181 183 186
234 246 243 235 232 233 230 234 244 240 241 249 242 242 249 70 48 52 70 75 90 147 58 45 46 41 24 31 22 322 17 52 50 54 58 67 83 103 122 139 173 196 226 216 179 156 146 153 174 175 177 186 194 195 193 188 181 178 176 171 166 164 164 168 167 162 159 161 166 166 158 154 156 158 157 156 158 157 156 157 154 151 151 157 161 162 164 166 167 169 180 187 180 176 183 191 189
223 236 237 238 248 245 236 231 238 245 244 247 247 241 46 32 348 17 73 96 109 98 72 51 38 23 7 18 13 348 31 42 38 39 37 37 35 33 36 32 32 28 13 16 61 102 147 168 213 195 186 190 199 201 194 185 181 179 174 169 167 164 162 162 161 156 154 159 163 156 151 153 154 156 156 157 159 157 154 157 156 151 155 159 156 161 163 156 162 169 172 181 183 178 185 190 186
211 226 229 229 235 238 247 237 233 253 259 262 258 245 69 8 345 12 45 67 72 88 90 75 60 40 9 37 37 27 38 36 33 38 35 31 32 32 36 44 54 48 28 35 45 31 159 173 191 201 199 193 201 208 198 181 180 181 175 170 169 167 163 160 158 154 151 153 153 149 151 153 152 154 158 162 163 158 157 159 158 160 162 157 155 159 154 153 162 165 172 179 175 179 184 176 173
217 220 228 230 231 233 239 231 217 233 253 269 272 194 75 322 3 24 8 16 65 97 105 98 110 144 96 68 50 36 35 31 30 35 34 31 32 35 36 38 49 55 51 43 30 24 18 304 187 196 203 196 195 204 198 184 181 181 175 170 168 166 161 158 157 151 144 146 150 151 153 151 152 157 160 166 166 159 161 158 154 160 157 153 159 156 154 167 164 157 172 175 173 197 194 168 162